| time (UTC) | temp F | wind direction | speed MPH | gust MPH | rain 1hr in | rain 24hr in | rain mn in | humidity % | barometer mb |
| 20260510115411 | 76 | 105 | 1.0 | 1.0 | 0.00 | 0.00 | 0.00 | 92 | 1011.2 |
| 20260510114911 | 76 | 78 | 1.0 | 1.0 | 0.00 | 0.00 | 0.00 | 91 | 1011.1 |
| 20260510114411 | 76 | 98 | 1.0 | 1.0 | 0.00 | 0.00 | 0.00 | 91 | 1011.1 |
| 20260510113913 | 76 | 253 | 1.0 | 2.0 | 0.00 | 0.00 | 0.00 | 91 | 1011.1 |
| 20260510113411 | 76 | 250 | 2.0 | 2.0 | 0.00 | 0.00 | 0.00 | 91 | 1011.1 |
| 20260510112911 | 76 | 257 | 1.0 | 2.0 | 0.00 | 0.00 | 0.00 | 91 | 1011.1 |
| 20260510112410 | 76 | 3 | 1.0 | 2.0 | 0.00 | 0.00 | 0.00 | 91 | 1011.1 |
| 20260510111910 | 76 | 263 | 1.0 | 2.0 | 0.00 | 0.00 | 0.00 | 91 | 1011.1 |
| 20260510111411 | 76 | 264 | 2.0 | 3.0 | 0.00 | 0.00 | 0.00 | 91 | 1011.1 |
| 20260510110910 | 76 | 249 | 2.0 | 3.0 | 0.00 | 0.00 | 0.00 | 91 | 1011.1 |
| 20260510110411 | 77 | 160 | 1.0 | 1.0 | 0.00 | 0.00 | 0.00 | 91 | 1011.1 |
| 20260510105911 | 77 | 95 | 0.0 | 0.0 | 0.00 | 0.00 | 0.00 | 91 | 1011.1 |
| 20260510105410 | 77 | 156 | 1.0 | 1.0 | 0.00 | 0.00 | 0.00 | 91 | 1011.1 |
| 20260510104911 | 77 | 147 | 2.0 | 2.0 | 0.00 | 0.00 | 0.00 | 91 | 1011.0 |
| 20260510104411 | 77 | 114 | 0.0 | 1.0 | 0.00 | 0.00 | 0.00 | 91 | 1011.1 |
| 20260510103910 | 76 | 126 | 1.0 | 1.0 | 0.00 | 0.00 | 0.00 | 91 | 1011.0 |
| 20260510103410 | 76 | 116 | 2.0 | 2.0 | 0.00 | 0.00 | 0.00 | 91 | 1010.9 |
| 20260510102910 | 77 | 142 | 1.0 | 2.0 | 0.00 | 0.00 | 0.00 | 91 | 1010.9 |
| 20260510102410 | 77 | 111 | 1.0 | 1.0 | 0.00 | 0.00 | 0.00 | 91 | 1011.0 |
| 20260510101910 | 77 | 157 | 1.0 | 2.0 | 0.00 | 0.00 | 0.00 | 91 | 1011.0 |
| 20260510101410 | 77 | 154 | 1.0 | 2.0 | 0.00 | 0.00 | 0.00 | 91 | 1011.0 |
| 20260510100910 | 77 | 334 | 4.0 | 7.0 | 0.00 | 0.00 | 0.00 | 91 | 1011.0 |
| 20260510100410 | 77 | 136 | 1.0 | 2.0 | 0.00 | 0.00 | 0.00 | 91 | 1011.0 |
| 20260510095911 | 77 | 151 | 0.0 | 1.0 | 0.00 | 0.00 | 0.00 | 91 | 1011.0 |
| 20260510095410 | 77 | 133 | 1.0 | 1.0 | 0.00 | 0.00 | 0.00 | 91 | 1011.0 |
| 20260510094910 | 77 | 131 | 0.0 | 1.0 | 0.00 | 0.00 | 0.00 | 91 | 1011.0 |
| 20260510094410 | 76 | 132 | 1.0 | 1.0 | 0.00 | 0.00 | 0.00 | 91 | 1011.0 |
| 20260510093911 | 76 | 134 | 0.0 | 1.0 | 0.00 | 0.00 | 0.00 | 91 | 1011.0 |
| 20260510093410 | 76 | 134 | 0.0 | 1.0 | 0.00 | 0.00 | 0.00 | 92 | 1011.0 |
| 20260510092911 | 76 | 134 | 1.0 | 1.0 | 0.00 | 0.00 | 0.00 | 92 | 1011.0 |
| 20260510092410 | 76 | 143 | 1.0 | 1.0 | 0.00 | 0.00 | 0.00 | 92 | 1011.0 |
| 20260510091910 | 76 | 139 | 1.0 | 1.0 | 0.00 | 0.00 | 0.00 | 92 | 1011.0 |
| 20260510091410 | 76 | 144 | 1.0 | 1.0 | 0.00 | 0.00 | 0.00 | 92 | 1011.0 |
| 20260510090910 | 76 | 144 | 1.0 | 1.0 | 0.00 | 0.00 | 0.00 | 92 | 1010.9 |
| 20260510090411 | 76 | 139 | 1.0 | 1.0 | 0.00 | 0.00 | 0.00 | 92 | 1010.9 |
| 20260510085910 | 76 | 6 | 1.0 | 1.0 | 0.00 | 0.00 | 0.00 | 92 | 1010.9 |
| 20260510085411 | 76 | 135 | 1.0 | 1.0 | 0.00 | 0.00 | 0.00 | 91 | 1010.9 |
| 20260510084910 | 76 | 137 | 1.0 | 2.0 | 0.00 | 0.00 | 0.00 | 91 | 1010.8 |
| 20260510084410 | 76 | 145 | 2.0 | 2.0 | 0.00 | 0.00 | 0.00 | 91 | 1010.8 |
| 20260510083916 | 76 | 144 | 2.0 | 2.0 | 0.00 | 0.00 | 0.00 | 91 | 1010.8 |
| 20260510083410 | 76 | 144 | 2.0 | 2.0 | 0.00 | 0.00 | 0.00 | 91 | 1010.7 |
| 20260510082911 | 76 | 165 | 3.0 | 7.0 | 0.00 | 0.00 | 0.00 | 91 | 1010.8 |
| 20260510082410 | 76 | 145 | 2.0 | 2.0 | 0.00 | 0.00 | 0.00 | 91 | 1010.8 |
| 20260510081911 | 76 | 139 | 2.0 | 2.0 | 0.00 | 0.00 | 0.00 | 91 | 1010.7 |
| 20260510081411 | 77 | 131 | 2.0 | 2.0 | 0.00 | 0.00 | 0.00 | 91 | 1010.6 |
| 20260510080910 | 77 | 126 | 1.0 | 2.0 | 0.00 | 0.00 | 0.00 | 91 | 1010.6 |
| 20260510080410 | 77 | 126 | 2.0 | 3.0 | 0.00 | 0.00 | 0.00 | 91 | 1010.6 |
| 20260510075912 | 77 | 225 | 3.0 | 4.0 | 0.00 | 0.00 | 0.00 | 90 | 1010.7 |
| 20260510075411 | 77 | 228 | 3.0 | 4.0 | 0.00 | 0.00 | 0.00 | 90 | 1010.8 |
| 20260510074912 | 77 | 230 | 2.0 | 5.0 | 0.00 | 0.00 | 0.00 | 90 | 1010.7 |
| 20260510074410 | 77 | 95 | 1.0 | 2.0 | 0.00 | 0.00 | 0.00 | 90 | 1010.7 |
| 20260510073911 | 77 | 84 | 1.0 | 2.0 | 0.00 | 0.00 | 0.00 | 90 | 1010.7 |
| 20260510073411 | 77 | 204 | 2.0 | 5.0 | 0.00 | 0.00 | 0.00 | 89 | 1010.7 |
| 20260510072911 | 76 | 86 | 1.0 | 2.0 | 0.00 | 0.00 | 0.00 | 89 | 1010.8 |
| 20260510072410 | 77 | 118 | 2.0 | 2.0 | 0.00 | 0.00 | 0.00 | 89 | 1010.7 |
| 20260510071912 | 77 | 118 | 2.0 | 7.0 | 0.00 | 0.00 | 0.00 | 89 | 1010.7 |
| 20260510071411 | 77 | 99 | 2.0 | 5.0 | 0.00 | 0.00 | 0.00 | 89 | 1010.8 |
| 20260510070911 | 77 | 107 | 2.0 | 5.0 | 0.00 | 0.00 | 0.00 | 89 | 1010.8 |
| 20260510070411 | 77 | 115 | 1.0 | 4.0 | 0.00 | 0.00 | 0.00 | 89 | 1010.9 |
| 20260510065910 | 76 | 134 | 1.0 | 4.0 | 0.00 | 0.00 | 0.00 | 88 | 1011.1 |
| 20260510065412 | 76 | 114 | 2.0 | 6.0 | 0.00 | 0.00 | 0.00 | 88 | 1011.1 |
| 20260510064911 | 76 | 124 | 1.0 | 4.0 | 0.00 | 0.00 | 0.00 | 88 | 1011.1 |
| 20260510064410 | 76 | 97 | 1.0 | 1.0 | 0.00 | 0.00 | 0.00 | 88 | 1011.0 |
| 20260510063911 | 76 | 126 | 1.0 | 1.0 | 0.00 | 0.00 | 0.00 | 88 | 1011.0 |
| 20260510063410 | 76 | 159 | 2.0 | 3.0 | 0.00 | 0.00 | 0.00 | 87 | 1011.1 |
| 20260510062910 | 76 | 132 | 1.0 | 1.0 | 0.00 | 0.00 | 0.00 | 87 | 1011.3 |
| 20260510062411 | 77 | 93 | 1.0 | 2.0 | 0.00 | 0.00 | 0.00 | 87 | 1011.3 |
| 20260510061910 | 77 | 148 | 1.0 | 5.0 | 0.00 | 0.00 | 0.00 | 87 | 1011.4 |
| 20260510061411 | 77 | 89 | 1.0 | 2.0 | 0.00 | 0.00 | 0.00 | 86 | 1011.5 |
| 20260510060911 | 77 | 229 | 2.0 | 3.0 | 0.00 | 0.00 | 0.00 | 86 | 1011.5 |
| 20260510060410 | 77 | 240 | 3.0 | 5.0 | 0.00 | 0.00 | 0.00 | 86 | 1011.7 |
| 20260510055910 | 77 | 218 | 1.0 | 4.0 | 0.00 | 0.00 | 0.00 | 85 | 1011.7 |
| 20260510055410 | 77 | 157 | 3.0 | 6.0 | 0.00 | 0.00 | 0.00 | 85 | 1011.7 |
| 20260510054911 | 77 | 198 | 2.0 | 5.0 | 0.00 | 0.00 | 0.00 | 85 | 1011.8 |
| 20260510054411 | 77 | 190 | 2.0 | 4.0 | 0.00 | 0.00 | 0.00 | 84 | 1011.8 |
| 20260510053910 | 77 | 173 | 2.0 | 4.0 | 0.00 | 0.00 | 0.00 | 84 | 1011.8 |
| 20260510053410 | 77 | 153 | 1.0 | 2.0 | 0.00 | 0.00 | 0.00 | 84 | 1011.8 |
| 20260510052910 | 77 | 202 | 2.0 | 5.0 | 0.00 | 0.00 | 0.00 | 84 | 1011.8 |
| 20260510052410 | 77 | 236 | 4.0 | 6.0 | 0.00 | 0.00 | 0.00 | 84 | 1011.7 |
| 20260510051911 | 77 | 243 | 5.0 | 6.0 | 0.00 | 0.00 | 0.00 | 84 | 1011.7 |
| 20260510051410 | 77 | 238 | 4.0 | 6.0 | 0.00 | 0.00 | 0.00 | 84 | 1011.6 |
| 20260510050911 | 77 | 240 | 4.0 | 6.0 | 0.00 | 0.00 | 0.00 | 84 | 1011.5 |
| 20260510050411 | 77 | 235 | 4.0 | 5.0 | 0.00 | 0.00 | 0.00 | 84 | 1011.4 |
| 20260510045911 | 77 | 197 | 4.0 | 7.0 | 0.00 | 0.00 | 0.05 | 83 | 1011.4 |
| 20260510045410 | 77 | 217 | 6.0 | 7.0 | 0.00 | 0.00 | 0.05 | 83 | 1011.4 |
| 20260510044910 | 77 | 211 | 3.0 | 9.0 | 0.00 | 0.00 | 0.05 | 83 | 1011.4 |
| 20260510044410 | 77 | 162 | 1.0 | 1.0 | 0.00 | 0.00 | 0.05 | 82 | 1011.4 |
| 20260510043910 | 77 | 155 | 1.0 | 1.0 | 0.00 | 0.00 | 0.05 | 81 | 1011.4 |
| 20260510043411 | 77 | 157 | 1.0 | 1.0 | 0.00 | 0.00 | 0.05 | 81 | 1011.3 |
| 20260510042910 | 77 | 155 | 1.0 | 2.0 | 0.00 | 0.00 | 0.05 | 81 | 1011.2 |
| 20260510042410 | 77 | 156 | 1.0 | 2.0 | 0.00 | 0.00 | 0.05 | 81 | 1011.2 |
| 20260510041910 | 77 | 158 | 1.0 | 2.0 | 0.00 | 0.00 | 0.05 | 82 | 1011.3 |
| 20260510041411 | 77 | 154 | 1.0 | 2.0 | 0.00 | 0.00 | 0.05 | 82 | 1011.4 |
| 20260510040910 | 77 | 149 | 2.0 | 3.0 | 0.00 | 0.00 | 0.05 | 83 | 1011.4 |
| 20260510040411 | 77 | 171 | 2.0 | 2.0 | 0.00 | 0.00 | 0.05 | 84 | 1011.5 |
| 20260510035911 | 77 | 171 | 2.0 | 4.0 | 0.00 | 0.00 | 0.05 | 85 | 1011.6 |
| 20260510035410 | 77 | 152 | 1.0 | 2.0 | 0.00 | 0.00 | 0.05 | 85 | 1011.4 |
| 20260510034910 | 77 | 94 | 1.0 | 2.0 | 0.00 | 0.00 | 0.05 | 85 | 1011.2 |
| 20260510034411 | 77 | 122 | 1.0 | 2.0 | 0.00 | 0.00 | 0.05 | 84 | 1011.3 |
| 20260510033910 | 78 | 88 | 1.0 | 2.0 | 0.00 | 0.00 | 0.05 | 83 | 1011.0 |
| 20260510033410 | 78 | 88 | 1.0 | 2.0 | 0.00 | 0.00 | 0.05 | 82 | 1010.8 |
| 20260510032910 | 78 | 113 | 1.0 | 2.0 | 0.00 | 0.00 | 0.05 | 82 | 1010.6 |
| 20260510032411 | 77 | 174 | 2.0 | 2.0 | 0.00 | 0.00 | 0.05 | 81 | 1010.4 |
| 20260510031910 | 77 | 174 | 1.0 | 2.0 | 0.00 | 0.00 | 0.05 | 82 | 1010.2 |
| 20260510031410 | 78 | 174 | 2.0 | 2.0 | 0.00 | 0.00 | 0.05 | 81 | 1010.2 |
| 20260510030910 | 78 | 172 | 1.0 | 2.0 | 0.00 | 0.00 | 0.05 | 81 | 1010.4 |
| 20260510030411 | 78 | 175 | 1.0 | 2.0 | 0.00 | 0.00 | 0.05 | 81 | 1010.3 |
| 20260510025910 | 78 | 166 | 1.0 | 2.0 | 0.00 | 0.00 | 0.05 | 81 | 1010.4 |
| 20260510025411 | 78 | 165 | 1.0 | 2.0 | 0.00 | 0.00 | 0.05 | 81 | 1010.3 |
| 20260510024910 | 78 | 150 | 1.0 | 1.0 | 0.00 | 0.00 | 0.05 | 81 | 1010.2 |
| 20260510024411 | 78 | 153 | 1.0 | 1.0 | 0.00 | 0.00 | 0.05 | 81 | 1010.1 |
| 20260510023910 | 78 | 149 | 1.0 | 1.0 | 0.00 | 0.00 | 0.05 | 79 | 1010.0 |
| 20260510023410 | 78 | 143 | 1.0 | 2.0 | 0.00 | 0.00 | 0.05 | 79 | 1010.1 |
| 20260510022910 | 78 | 129 | 1.0 | 6.0 | 0.00 | 0.00 | 0.05 | 78 | 1010.1 |
| 20260510022410 | 78 | 122 | 4.0 | 7.0 | 0.00 | 0.00 | 0.05 | 79 | 1010.1 |
| 20260510021911 | 78 | 129 | 2.0 | 7.0 | 0.00 | 0.00 | 0.05 | 78 | 1010.0 |
| 20260510021411 | 78 | 113 | 2.0 | 4.0 | 0.00 | 0.00 | 0.05 | 79 | 1009.8 |
| 20260510020911 | 78 | 98 | 2.0 | 4.0 | 0.00 | 0.00 | 0.05 | 79 | 1009.6 |
| 20260510020411 | 79 | 109 | 1.0 | 4.0 | 0.00 | 0.00 | 0.05 | 79 | 1009.5 |
| 20260510015910 | 79 | 105 | 1.0 | 2.0 | 0.00 | 0.00 | 0.05 | 79 | 1009.5 |
| 20260510015412 | 79 | 95 | 2.0 | 7.0 | 0.00 | 0.00 | 0.05 | 77 | 1009.4 |
| 20260510014911 | 79 | 86 | 1.0 | 2.0 | 0.00 | 0.00 | 0.05 | 76 | 1009.3 |
| 20260510014411 | 79 | 86 | 1.0 | 2.0 | 0.00 | 0.00 | 0.05 | 74 | 1009.2 |
| 20260510013911 | 79 | 98 | 1.0 | 4.0 | 0.00 | 0.00 | 0.05 | 73 | 1009.2 |
| 20260510013411 | 79 | 175 | 2.0 | 5.0 | 0.00 | 0.00 | 0.05 | 72 | 1009.1 |
| 20260510012912 | 79 | 149 | 1.0 | 3.0 | 0.00 | 0.00 | 0.05 | 73 | 1009.0 |
| 20260510012411 | 79 | 228 | 4.0 | 8.0 | 0.00 | 0.00 | 0.05 | 74 | 1008.8 |
| 20260510011911 | 80 | 228 | 4.0 | 8.0 | 0.00 | 0.00 | 0.05 | 73 | 1008.8 |
| 20260510011411 | 80 | 120 | 3.0 | 8.0 | 0.00 | 0.00 | 0.05 | 70 | 1008.8 |
| 20260510010910 | 80 | 155 | 1.0 | 4.0 | 0.00 | 0.00 | 0.05 | 68 | 1009.0 |
| 20260510010414 | 80 | 184 | 2.0 | 4.0 | 0.00 | 0.00 | 0.05 | 66 | 1008.8 |
| 20260510005911 | 81 | 268 | 1.0 | 2.0 | 0.00 | 0.00 | 0.05 | 64 | 1008.8 |
| 20260510005411 | 81 | 258 | 1.0 | 2.0 | 0.00 | 0.00 | 0.05 | 62 | 1008.9 |
| 20260510004910 | 82 | 266 | 1.0 | 2.0 | 0.00 | 0.00 | 0.05 | 58 | 1008.9 |
| 20260510004410 | 82 | 289 | 1.0 | 2.0 | 0.00 | 0.00 | 0.05 | 56 | 1009.0 |
| 20260510003911 | 83 | 268 | 1.0 | 2.0 | 0.00 | 0.00 | 0.05 | 56 | 1009.0 |
| 20260510003411 | 83 | 267 | 1.0 | 2.0 | 0.00 | 0.00 | 0.05 | 55 | 1008.9 |
| 20260510002911 | 83 | 267 | 1.0 | 2.0 | 0.00 | 0.00 | 0.05 | 55 | 1008.9 |
| 20260510002410 | 83 | 227 | 1.0 | 2.0 | 0.00 | 0.00 | 0.05 | 54 | 1008.9 |
| 20260510001910 | 84 | 241 | 1.0 | 2.0 | 0.00 | 0.00 | 0.05 | 54 | 1008.8 |
| 20260510001412 | 84 | 282 | 2.0 | 3.0 | 0.00 | 0.00 | 0.05 | 52 | 1008.8 |
| 20260510000910 | 84 | 210 | 2.0 | 4.0 | 0.00 | 0.00 | 0.05 | 50 | 1008.8 |
| 20260510000411 | 84 | 231 | 2.0 | 5.0 | 0.00 | 0.00 | 0.05 | 52 | 1008.8 |
| 20260509235910 | 84 | 242 | 2.0 | 4.0 | 0.00 | 0.00 | 0.05 | 52 | 1008.7 |
| 20260509235410 | 84 | 237 | 2.0 | 6.0 | 0.00 | 0.00 | 0.05 | 51 | 1008.7 |
| 20260509234910 | 85 | 225 | 2.0 | 4.0 | 0.00 | 0.00 | 0.05 | 55 | 1008.6 |
| 20260509234410 | 85 | 237 | 3.0 | 5.0 | 0.00 | 0.00 | 0.05 | 53 | 1008.7 |
| 20260509233911 | 85 | 275 | 3.0 | 7.0 | 0.00 | 0.00 | 0.05 | 56 | 1008.7 |
| 20260509233410 | 85 | 245 | 2.0 | 3.0 | 0.00 | 0.00 | 0.05 | 56 | 1008.7 |
| 20260509232910 | 86 | 264 | 2.0 | 3.0 | 0.00 | 0.00 | 0.05 | 50 | 1008.7 |
| 20260509232410 | 86 | 265 | 2.0 | 2.0 | 0.00 | 0.00 | 0.05 | 48 | 1008.7 |
| 20260509231911 | 86 | 263 | 2.0 | 2.0 | 0.00 | 0.00 | 0.05 | 51 | 1008.7 |
| 20260509231410 | 86 | 265 | 2.0 | 2.0 | 0.00 | 0.00 | 0.05 | 52 | 1008.7 |
| 20260509230911 | 86 | 267 | 2.0 | 4.0 | 0.00 | 0.00 | 0.05 | 52 | 1008.6 |
| 20260509230410 | 86 | 274 | 2.0 | 3.0 | 0.00 | 0.00 | 0.05 | 53 | 1008.6 |
| 20260509225910 | 86 | 268 | 2.0 | 4.0 | 0.00 | 0.00 | 0.05 | 53 | 1008.6 |
| 20260509225410 | 86 | 251 | 1.0 | 7.0 | 0.00 | 0.00 | 0.05 | 53 | 1008.6 |
| 20260509224910 | 86 | 269 | 1.0 | 2.0 | 0.00 | 0.00 | 0.05 | 53 | 1008.7 |
| 20260509224412 | 86 | 265 | 2.0 | 3.0 | 0.00 | 0.00 | 0.05 | 53 | 1008.5 |
| 20260509223911 | 86 | 265 | 2.0 | 3.0 | 0.00 | 0.00 | 0.05 | 53 | 1008.5 |
| 20260509223410 | 86 | 263 | 3.0 | 6.0 | 0.00 | 0.00 | 0.05 | 53 | 1008.6 |
| 20260509222910 | 86 | 265 | 2.0 | 3.0 | 0.00 | 0.00 | 0.05 | 53 | 1008.5 |
| 20260509222410 | 86 | 264 | 2.0 | 3.0 | 0.00 | 0.00 | 0.05 | 53 | 1008.5 |
| 20260509221911 | 87 | 246 | 2.0 | 3.0 | 0.00 | 0.00 | 0.05 | 53 | 1008.6 |
| 20260509221411 | 87 | 259 | 2.0 | 6.0 | 0.00 | 0.00 | 0.05 | 52 | 1008.4 |
| 20260509220910 | 87 | 259 | 2.0 | 8.0 | 0.00 | 0.00 | 0.05 | 52 | 1008.5 |
| 20260509220410 | 87 | 264 | 5.0 | 11.0 | 0.00 | 0.00 | 0.05 | 52 | 1008.4 |
| 20260509215911 | 87 | 275 | 2.0 | 6.0 | 0.00 | 0.00 | 0.05 | 53 | 1008.4 |
| 20260509215410 | 87 | 268 | 5.0 | 10.0 | 0.00 | 0.00 | 0.05 | 53 | 1008.4 |
| 20260509214910 | 87 | 264 | 4.0 | 9.0 | 0.00 | 0.00 | 0.05 | 54 | 1008.4 |
| 20260509214411 | 87 | 258 | 2.0 | 4.0 | 0.00 | 0.00 | 0.05 | 53 | 1008.4 |
| 20260509213910 | 87 | 267 | 3.0 | 7.0 | 0.00 | 0.00 | 0.05 | 52 | 1008.4 |
| 20260509213410 | 87 | 269 | 4.0 | 8.0 | 0.00 | 0.00 | 0.05 | 54 | 1008.4 |
| 20260509212910 | 87 | 264 | 3.0 | 7.0 | 0.00 | 0.00 | 0.05 | 53 | 1008.4 |
| 20260509212411 | 87 | 266 | 4.0 | 9.0 | 0.00 | 0.00 | 0.05 | 54 | 1008.3 |
| 20260509211911 | 87 | 272 | 2.0 | 6.0 | 0.00 | 0.00 | 0.05 | 53 | 1008.4 |
| 20260509211410 | 87 | 269 | 5.0 | 10.0 | 0.00 | 0.00 | 0.05 | 53 | 1008.3 |
| 20260509210911 | 87 | 275 | 2.0 | 4.0 | 0.00 | 0.00 | 0.05 | 53 | 1008.4 |
| 20260509210410 | 87 | 256 | 2.0 | 3.0 | 0.00 | 0.00 | 0.05 | 53 | 1008.4 |
| 20260509205911 | 87 | 265 | 2.0 | 5.0 | 0.00 | 0.00 | 0.05 | 53 | 1008.4 |
| 20260509205411 | 88 | 264 | 6.0 | 10.0 | 0.00 | 0.00 | 0.05 | 54 | 1008.5 |
| 20260509204910 | 89 | 273 | 4.0 | 11.0 | 0.00 | 0.00 | 0.05 | 52 | 1008.5 |
| 20260509204411 | 89 | 279 | 2.0 | 5.0 | 0.00 | 0.00 | 0.05 | 47 | 1008.3 |
| 20260509203910 | 89 | 339 | 3.0 | 6.0 | 0.00 | 0.00 | 0.05 | 47 | 1008.4 |
| 20260509203410 | 89 | 310 | 6.0 | 10.0 | 0.00 | 0.00 | 0.05 | 48 | 1008.4 |
| 20260509202911 | 89 | 273 | 4.0 | 9.0 | 0.00 | 0.00 | 0.05 | 47 | 1008.4 |
| 20260509202410 | 89 | 267 | 4.0 | 6.0 | 0.00 | 0.00 | 0.05 | 48 | 1008.7 |
| 20260509201912 | 90 | 268 | 3.0 | 5.0 | 0.00 | 0.00 | 0.05 | 47 | 1008.6 |
| 20260509201410 | 90 | 266 | 5.0 | 7.0 | 0.00 | 0.00 | 0.05 | 43 | 1008.6 |
| 20260509200910 | 89 | 262 | 5.0 | 8.0 | 0.00 | 0.00 | 0.05 | 45 | 1008.7 |
| 20260509200410 | 89 | 264 | 5.0 | 7.0 | 0.00 | 0.00 | 0.05 | 45 | 1008.8 |
| 20260509195910 | 88 | 268 | 3.0 | 6.0 | 0.00 | 0.00 | 0.05 | 46 | 1008.9 |
| 20260509195411 | 89 | 250 | 6.0 | 10.0 | 0.00 | 0.00 | 0.05 | 49 | 1008.8 |
| 20260509194910 | 89 | 337 | 5.0 | 8.0 | 0.00 | 0.00 | 0.05 | 42 | 1008.8 |
| 20260509194411 | 88 | 317 | 5.0 | 9.0 | 0.00 | 0.00 | 0.05 | 49 | 1008.9 |
| 20260509193911 | 88 | 269 | 4.0 | 5.0 | 0.00 | 0.00 | 0.05 | 47 | 1009.0 |
| 20260509193410 | 88 | 266 | 2.0 | 4.0 | 0.00 | 0.00 | 0.05 | 50 | 1009.0 |
| 20260509192910 | 88 | 269 | 3.0 | 6.0 | 0.00 | 0.00 | 0.05 | 50 | 1009.0 |
| 20260509192411 | 88 | 267 | 3.0 | 6.0 | 0.00 | 0.00 | 0.05 | 48 | 1009.2 |
| 20260509191911 | 87 | 264 | 3.0 | 6.0 | 0.00 | 0.00 | 0.05 | 50 | 1009.2 |
| 20260509191411 | 87 | 263 | 3.0 | 5.0 | 0.00 | 0.00 | 0.05 | 51 | 1009.2 |
| 20260509190910 | 88 | 147 | 2.0 | 4.0 | 0.00 | 0.00 | 0.05 | 50 | 1009.2 |
| 20260509190410 | 88 | 214 | 2.0 | 5.0 | 0.00 | 0.00 | 0.05 | 47 | 1009.2 |
| 20260509185911 | 87 | 254 | 3.0 | 5.0 | 0.00 | 0.00 | 0.05 | 46 | 1009.2 |
| 20260509185410 | 87 | 260 | 4.0 | 6.0 | 0.00 | 0.00 | 0.05 | 48 | 1009.2 |
| 20260509184910 | 87 | 262 | 2.0 | 5.0 | 0.00 | 0.00 | 0.05 | 48 | 1009.3 |
| 20260509184410 | 86 | 267 | 2.0 | 7.0 | 0.00 | 0.00 | 0.05 | 50 | 1009.3 |
| 20260509183910 | 87 | 260 | 3.0 | 4.0 | 0.00 | 0.00 | 0.05 | 51 | 1009.2 |
| 20260509183410 | 86 | 266 | 2.0 | 3.0 | 0.00 | 0.00 | 0.05 | 50 | 1009.2 |
| 20260509182910 | 86 | 265 | 2.0 | 3.0 | 0.00 | 0.00 | 0.05 | 52 | 1009.4 |
| 20260509182411 | 86 | 263 | 2.0 | 4.0 | 0.00 | 0.00 | 0.05 | 51 | 1009.3 |
| 20260509181911 | 85 | 263 | 4.0 | 6.0 | 0.00 | 0.00 | 0.05 | 56 | 1009.4 |
| 20260509181410 | 86 | 279 | 3.0 | 6.0 | 0.00 | 0.00 | 0.05 | 54 | 1009.3 |
| 20260509180910 | 85 | 342 | 3.0 | 5.0 | 0.00 | 0.00 | 0.05 | 56 | 1009.3 |
| 20260509180411 | 85 | 293 | 3.0 | 6.0 | 0.00 | 0.00 | 0.05 | 58 | 1009.5 |
| 20260509175911 | 85 | 319 | 3.0 | 7.0 | 0.00 | 0.00 | 0.05 | 58 | 1009.6 |
| 20260509175411 | 84 | 38 | 1.0 | 5.0 | 0.00 | 0.00 | 0.05 | 59 | 1009.6 |
| 20260509174910 | 84 | 26 | 2.0 | 3.0 | 0.00 | 0.00 | 0.05 | 57 | 1009.6 |
| 20260509174411 | 83 | 62 | 1.0 | 4.0 | 0.00 | 0.00 | 0.05 | 61 | 1009.8 |
| 20260509173910 | 83 | 131 | 1.0 | 2.0 | 0.00 | 0.00 | 0.05 | 64 | 1009.5 |
| 20260509173411 | 83 | 137 | 1.0 | 2.0 | 0.00 | 0.00 | 0.05 | 65 | 1009.4 |
| 20260509172910 | 82 | 129 | 1.0 | 2.0 | 0.00 | 0.00 | 0.05 | 65 | 1009.4 |
| 20260509172410 | 82 | 114 | 1.0 | 6.0 | 0.00 | 0.00 | 0.05 | 68 | 1009.5 |
| 20260509171911 | 82 | 126 | 1.0 | 1.0 | 0.00 | 0.00 | 0.05 | 68 | 1009.6 |
| 20260509171411 | 82 | 123 | 1.0 | 1.0 | 0.00 | 0.00 | 0.05 | 68 | 1009.8 |
| 20260509170911 | 82 | 206 | 1.0 | 3.0 | 0.00 | 0.00 | 0.05 | 70 | 1009.8 |
| 20260509170411 | 81 | 110 | 1.0 | 1.0 | 0.00 | 0.00 | 0.05 | 70 | 1009.6 |
| 20260509165911 | 81 | 120 | 1.0 | 2.0 | 0.00 | 0.00 | 0.05 | 71 | 1010.0 |
| 20260509165410 | 81 | 126 | 1.0 | 2.0 | 0.00 | 0.00 | 0.05 | 72 | 1010.1 |
| 20260509164911 | 80 | 125 | 2.0 | 2.0 | 0.00 | 0.00 | 0.05 | 73 | 1010.0 |
| 20260509164411 | 80 | 125 | 1.0 | 2.0 | 0.00 | 0.00 | 0.05 | 74 | 1010.1 |
| 20260509163910 | 80 | 123 | 1.0 | 1.0 | 0.00 | 0.00 | 0.05 | 75 | 1010.2 |
| 20260509163411 | 80 | 124 | 1.0 | 1.0 | 0.00 | 0.00 | 0.05 | 75 | 1009.9 |
| 20260509162911 | 79 | 127 | 1.0 | 1.0 | 0.00 | 0.00 | 0.05 | 76 | 1009.9 |
| 20260509162410 | 79 | 122 | 2.0 | 2.0 | 0.00 | 0.00 | 0.05 | 76 | 1009.8 |
| 20260509161910 | 79 | 118 | 1.0 | 1.0 | 0.00 | 0.00 | 0.05 | 75 | 1009.8 |
| 20260509161411 | 79 | 119 | 1.0 | 2.0 | 0.00 | 0.00 | 0.05 | 75 | 1009.8 |
| 20260509160911 | 78 | 124 | 2.0 | 2.0 | 0.00 | 0.00 | 0.05 | 75 | 1009.9 |
| 20260509160411 | 78 | 120 | 1.0 | 1.0 | 0.00 | 0.00 | 0.05 | 78 | 1009.8 |
| 20260509155911 | 78 | 121 | 1.0 | 1.0 | 0.00 | 0.00 | 0.05 | 78 | 1009.7 |
| 20260509155410 | 78 | 128 | 1.0 | 1.0 | 0.00 | 0.00 | 0.05 | 80 | 1009.8 |
| 20260509154910 | 77 | 97 | 1.0 | 1.0 | 0.00 | 0.00 | 0.05 | 80 | 1009.7 |
| 20260509154410 | 77 | 130 | 1.0 | 1.0 | 0.00 | 0.00 | 0.05 | 80 | 1009.9 |
| 20260509153911 | 78 | 159 | 1.0 | 1.0 | 0.00 | 0.00 | 0.05 | 79 | 1010.0 |
| 20260509153411 | 78 | 130 | 1.0 | 1.0 | 0.00 | 0.00 | 0.05 | 78 | 1010.2 |
| 20260509152911 | 78 | 129 | 1.0 | 1.0 | 0.00 | 0.00 | 0.05 | 77 | 1010.0 |
| 20260509152411 | 78 | 130 | 1.0 | 1.0 | 0.00 | 0.00 | 0.05 | 77 | 1010.6 |
| 20260509151910 | 78 | 130 | 1.0 | 2.0 | 0.00 | 0.00 | 0.05 | 76 | 1010.6 |
| 20260509151410 | 78 | 141 | 1.0 | 2.0 | 0.00 | 0.00 | 0.05 | 77 | 1010.4 |
| 20260509150911 | 78 | 131 | 1.0 | 2.0 | 0.00 | 0.00 | 0.05 | 77 | 1010.8 |
| 20260509150410 | 78 | 133 | 1.0 | 1.0 | 0.00 | 0.00 | 0.05 | 78 | 1010.6 |
| 20260509145911 | 77 | 248 | 6.0 | 12.0 | 0.00 | 0.00 | 0.05 | 79 | 1010.7 |
| 20260509145410 | 77 | 234 | 4.0 | 5.0 | 0.00 | 0.00 | 0.05 | 79 | 1010.5 |
| 20260509144910 | 77 | 180 | 2.0 | 8.0 | 0.00 | 0.00 | 0.05 | 77 | 1010.5 |
| 20260509144410 | 77 | 184 | 4.0 | 9.0 | 0.00 | 0.00 | 0.05 | 80 | 1010.3 |
| 20260509143910 | 77 | 259 | 8.0 | 11.0 | 0.00 | 0.00 | 0.05 | 79 | 1010.2 |
| 20260509143411 | 77 | 259 | 9.0 | 11.0 | 0.00 | 0.00 | 0.05 | 80 | 1010.2 |
| 20260509142911 | 76 | 260 | 5.0 | 8.0 | 0.00 | 0.00 | 0.05 | 83 | 1010.3 |
| 20260509142411 | 76 | 266 | 7.0 | 10.0 | 0.00 | 0.00 | 0.05 | 86 | 1010.0 |
| 20260509141910 | 76 | 116 | 5.0 | 8.0 | 0.00 | 0.00 | 0.05 | 88 | 1009.7 |
| 20260509141411 | 76 | 87 | 4.0 | 6.0 | 0.00 | 0.00 | 0.05 | 88 | 1008.0 |
| 20260509140911 | 76 | 86 | 4.0 | 6.0 | 0.00 | 0.00 | 0.05 | 89 | 1007.3 |
| 20260509140410 | 76 | 92 | 1.0 | 1.0 | 0.00 | 0.00 | 0.05 | 90 | 1007.7 |
| 20260509135913 | 76 | 191 | 1.0 | 3.0 | 0.00 | 0.00 | 0.05 | 90 | 1008.3 |
| 20260509135411 | 76 | 93 | 1.0 | 1.0 | 0.00 | 0.00 | 0.05 | 91 | 1008.5 |
| 20260509134913 | 76 | 132 | 1.0 | 3.0 | 0.00 | 0.00 | 0.05 | 93 | 1009.0 |
| 20260509134411 | 76 | 239 | 2.0 | 4.0 | 0.00 | 0.00 | 0.05 | 93 | 1009.7 |
| 20260509133910 | 76 | 224 | 2.0 | 3.0 | 0.00 | 0.00 | 0.05 | 93 | 1009.9 |
| 20260509133410 | 76 | 146 | 1.0 | 4.0 | 0.00 | 0.00 | 0.05 | 93 | 1010.2 |
| 20260509132911 | 76 | 238 | 6.0 | 11.0 | 0.00 | 0.00 | 0.05 | 93 | 1010.5 |
| 20260509132411 | 76 | 234 | 7.0 | 11.0 | 0.00 | 0.00 | 0.05 | 93 | 1010.5 |
| 20260509131911 | 76 | 238 | 7.0 | 11.0 | 0.00 | 0.00 | 0.05 | 93 | 1010.0 |
| 20260509131413 | 76 | 239 | 8.0 | 10.0 | 0.00 | 0.00 | 0.05 | 93 | 1009.6 |
| 20260509130910 | 76 | 222 | 7.0 | 11.0 | 0.00 | 0.00 | 0.05 | 94 | 1010.0 |
| 20260509130411 | 76 | 188 | 2.0 | 7.0 | 0.01 | 0.00 | 0.05 | 94 | 1010.0 |
| 20260509125911 | 76 | 187 | 2.0 | 8.0 | 0.01 | 0.00 | 0.06 | 94 | 1010.2 |
| 20260509125410 | 76 | 180 | 2.0 | 9.0 | 0.03 | 0.00 | 0.06 | 94 | 1010.4 |
| 20260509124912 | 76 | 223 | 5.0 | 11.0 | 0.06 | 0.00 | 0.06 | 94 | 1010.3 |
| 20260509124411 | 76 | 229 | 6.0 | 10.0 | 0.06 | 0.00 | 0.06 | 94 | 1010.1 |
| 20260509123910 | 76 | 268 | 5.0 | 9.0 | 0.06 | 0.00 | 0.06 | 94 | 1010.0 |
| 20260509123411 | 76 | 319 | 4.0 | 6.0 | 0.06 | 0.00 | 0.06 | 94 | 1010.2 |
| 20260509122910 | 75 | 337 | 4.0 | 6.0 | 0.06 | 0.00 | 0.06 | 94 | 1010.4 |
| 20260509122411 | 75 | 326 | 4.0 | 7.0 | 0.04 | 0.00 | 0.06 | 94 | 1010.3 |
| 20260509121913 | 75 | 343 | 3.0 | 8.0 | 0.04 | 0.00 | 0.04 | 94 | 1010.4 |
| 20260509121410 | 75 | 334 | 4.0 | 6.0 | 0.04 | 0.00 | 0.04 | 93 | 1010.5 |
| 20260509120912 | 75 | 335 | 4.0 | 6.0 | 0.02 | 0.00 | 0.04 | 93 | 1010.8 |
| 20260509120411 | 75 | 341 | 4.0 | 5.0 | 0.02 | 0.00 | 0.02 | 93 | 1011.2 |
| 20260509115911 | 75 | 320 | 4.0 | 5.0 | 0.02 | 0.00 | 0.02 | 93 | 1011.4 |